星链-33779 (STARLINK-33779)

导读

STARLINK-33779是美国太空探索技术公司(SpaceX)星链(Starlink)卫星互联网项目中的一颗低轨通信卫星,于2025年5月10日由美国发射入轨。作为星链星座的组成部分,它主要为全球用户提供高速、低延迟的宽带互联网接入服务,尤其助力扩展偏远及高需求区域的网络覆盖,推动星链全球互联网络的部署完善。

Basic Information
目录编号:
63880
目录名称:
STARLINK-33779
国际标识:
2025-094S
轨道中心:
EARTH
卫星名称:
星链-33779
卫星全名:
星链-33779 (STARLINK-33779)
卫星状态:
在轨 (已飞行400 天)
发射日期:
2025-05-10 UTC
国别 :
美国 (US)
星等 :
--
Orbit Information
数据来源 国际轨道数据 AOE轨道数据
星历时间 2026-06-14T04:14:35+0800
11小时前
查看轨道信息
2026-06-11T17:00:00+0800
2天前
查看轨道信息
半长轴 6950.174km 6950.142km
偏心率 0.0002816 0.0002918
轨道倾角 70.002° 70.002°
近地点辐角 265.845° 270.400°
升交点赤经 352.121° 358.344°
平近点角 94.239° 98.661°
近地点 570.079km 569.976km
远地点 573.995km 574.034km
周期 96.107分钟 96.106分钟
每日圈数 14.983362 14.983465
Detailed Information
固有亮度:
5
最大亮度:
2.5
卫星平台:
Starlink V1.0
覆盖范围:
全球
运营商:
太空探索技术公司
运营商所在国:
美国
制造商(研发单位):
太空探索技术公司
制造商所在国:
美国
使用方式:
暂无
Satellite Introduction
Starlink 计划是 SpaceX 推出的全球卫星互联网项目,通过发射低轨道卫星,为全球尤其是偏远地区提供高速、低延迟的互联网服务。自 2019 年起,Starlink 已部署数千颗卫星,旨在缩小全球数字鸿沟,推动互联网普及。该项目还为军事、航空等行业提供通信支持,带来广泛经济效益。
2D Orbit Map
3D Orbit Map
Orbit Altitude Analysis Chart
Orbit Inclination Analysis Chart
Orbit Comprehensive Analysis Chart
View Comprehensive Chart